{"data":{"norad_id":62213,"intl_designator":"2024-229X","name":"STARLINK-32669","alt_names":[],"object_type":"PAYLOAD","status":"ACTIVE","operator":null,"country":"US","launch_date":"2024-12-04","launch_site_code":"AFETR","launch_vehicle":null,"mission":null,"orbit_class":"UNKNOWN","rcs_meters":null,"size_class":null,"mass_kg":null,"dimensions":null,"purposes":["comms"],"wikipedia_slug":null,"has_3d_model":false,"image_url":null,"decayed_at":null,"tle_current":{"epoch":"2026-05-25T03:56:05.487360Z","epoch_age_seconds":57971,"freshness":"FRESH","line1":"1 62213U 24229X   26145.16395240  .00011407  00000+0  42372-3 0  9994","line2":"2 62213  43.0010 199.1214 0003214 282.0157  78.0335 15.27554077 82252","mean_motion":15.27554077,"eccentricity":0.0003214,"inclination_deg":43.001,"raan_deg":199.1214,"arg_perigee_deg":282.0157,"mean_anomaly_deg":78.0335,"bstar":0.00042372,"rev_number":8225,"period_min":94.268348445513,"perigee_km":480.92150976555,"apogee_km":485.33193008472,"semimajor_km":6861.2637199251,"source":"CELESTRAK","updated_at":"2026-05-25T13:38:19.612190Z"}}}